Regional Weather Roundup
Issued by NWS Goodland, KS

Home | Current Version | Previous Version | Text Only | Print | Product List | Glossary Off
Versions: 1 2 3 4 5 6 7 8 9 10 11 12 13 14 15 16 17 18 19 20 21 22 23 24 25 26 27 28 29 30 31 32 33 34 35 36 37 38 39 40 41 42 43 44 45 46 47 48 49 50

000
ASUS43 KGLD 260208
RWRGLD

GOODLAND FORECAST AREA HOURLY WEATHER ROUNDUP
NATIONAL WEATHER SERVICE GOODLAND KS
800 PM MDT TUE APR 25 2017

...OFFICIAL OBSERVATIONS...

CITY           SKY/WX    TMP DP  RH WIND       PRES   REMARKS
GOODLAND KS    MOCLDY    47  41  80 NE14      29.66R
HILL CITY KS   CLOUDY    46  40  79 N20G25    29.67R
IMPERIAL NEB   CLOUDY    40  34  79 NE18      29.74R
MCCOOK NEB     CLOUDY    42  36  79 NE14      29.71R
AKRON CO       CLOUDY    41  35  79 NE22G30   29.72R
BURLINGTON CO  NOT AVBL
LIMON CO       CLOUDY    42  39  89 NE23G31   29.69R
$$

...UNOFFICIAL OBSERVATIONS...

CITY           SKY/WX    TMP DP  RH WIND       PRES   REMARKS
LENORA KS        N/A     43  32  65 MISG        N/A
NORTON KS      CLOUDY    39  34  81 N15G22    29.68R
SHARON SPRINGS   N/A     50  43  77 NE15        N/A
TRENTON NEB      N/A     40  32  73 N10         N/A
KIT CARSON CO    N/A     46  41  84 MISG        N/A
YUMA CO        CLOUDY    41  37  87 NE17      29.71R
$$



USA.gov is the U.S. government's official web portal to all federal, state and local government web resources and services.